星链-3116 (STARLINK-3116 )

导读 | 豆包AI

STARLINK-3116是美国太空探索技术公司星链星座中的一颗卫星,于2021年9月14日发射升空,归属美国所有。它属于星链低轨互联网星座组网卫星,主要为全球范围提供低延迟、高速率的宽带互联网服务,是星链大规模组网进程中的组成部分,支撑星座的全球覆盖能力构建。

Basic Information
目录编号:
49146
目录名称:
STARLINK-3116
国际标识:
2021-082S
轨道中心:
EARTH
卫星名称:
星链-3116
卫星全名:
星链-3116 (STARLINK-3116 )
卫星状态:
在轨 (已飞行1642 天)
发射日期:
2021-09-14 UTC
国别 :
美国 (US)
星等 :
--
Orbit Information
数据来源 国际轨道数据 AOE轨道数据
星历时间 2026-03-14T06:44:08+0800
21小时前
查看轨道信息
2026-03-14T09:00:00+0800
18小时前
查看轨道信息
半长轴 6952.669km 6952.672km
偏心率 0.0002508 0.0002636
轨道倾角 69.998° 70.001°
近地点辐角 267.393° 273.389°
升交点赤经 264.524° 264.286°
平近点角 92.694° 235.249°
近地点 572.788km 572.702km
远地点 576.276km 576.368km
周期 96.158分钟 96.158分钟
每日圈数 14.975297 14.975287
Detailed Information
固有亮度:
5
最大亮度:
2.5
卫星平台:
Starlink v1.5
覆盖范围:
全球
运营商:
太空探索技术公司
运营商所在国:
美国
制造商(研发单位):
太空探索技术公司
制造商所在国:
美国
使用方式:
暂无
Satellite Introduction
星链(Starlink)计划是由太空探索技术公司(SpaceX)提出的一个巨型低轨卫星互联网星座项目,计划在2019年至2024年间在太空搭建由约1.2万颗卫星组成的“星链”网络,其中1584颗将部署在地球上空550千米处的近地轨道,并从2020年开始工作。该卫星仍在工作。
2D Orbit Map
3D Orbit Map
Orbit Altitude Analysis Chart
Orbit Inclination Analysis Chart
Orbit Comprehensive Analysis Chart
View Comprehensive Chart